Location: Bothwell
(42.3833°S, 147.0000°E)
Time: 19:58:41
(UTC+11:00)

CUBESAT XI-V - Pass Details

Date: 28 September 2022
Orbit: 666 x 689 km, 98.1° (Epoch: 25 November)

Event Time Altitude Azimuth Distance (km) Brightness Sun altitude
Rises 03:23:16 0° 174° (S) 3,086 ? -26.9°
Reaches altitude 10° 03:25:36 10° 180° (S) 2,165 ? -26.5°
Enters shadow 03:28:37 33° 207° (SSW) 1,162 ? -26.0°
